Simultaneous Nadir Overpasses (SNOs) Predictions

Prediction of SNOs between NOAA-19 and TERRA Satellite Orbit:

Table of predicted SNOs for the next 14.0 days since TLE Epoch: 7/31/2012
Index Date (NOAA-19) Time (NOAA-19) NOAA-19 Lat,Lon Date (TERRA) Time (TERRA) TERRA Lat,Lon Distance(km) Time Diff (sec)
1 08/02/2012 08:17:08 -69.05,-124.95 08/02/2012 08:17:44 -69.05,-124.99 1.65 36
2 08/02/2012 09:08:09 68.90, 42.50 08/02/2012 09:07:12 68.89, 42.44 2.60 57
3 08/04/2012 13:01:46 -69.03, 163.92 08/04/2012 13:02:00 -69.06, 163.94 2.77 14
4 08/04/2012 13:52:43 68.64, -28.31 08/04/2012 13:51:31 68.72, -28.84 23.31 72
5 08/06/2012 16:55:32 69.46, -75.09 08/06/2012 16:56:43 69.32, -74.41 30.60 71
6 08/06/2012 17:46:23 -68.97, 92.85 08/06/2012 17:46:17 -69.00, 92.80 3.08 6
7 08/08/2012 21:40:04
